EUTELSAT 115 WEST B (40425 NORAD) Tracking and Keplerian Element Data

This shows tracking and keplerian element data for the satellite.

Feedback or suggestion? Click here.




ElementValue
Catalog40425
NameEUTELSAT 115 WEST B
Epoch Orbit3643
Epoch Day34.67730497
Epoch Year2025
RAAN206.0967
Inclination0.012
Eccentricity7.6E-06
Argument of Perigee209.1211
Mean Anonmoly207.7767
Mean Motion1.00270805
Decay Rate-2E-07
L11 40425U 15010B 25034.67730497 -.00000020 00000+0 00000+0 0 9990
L22 40425 0.0120 206.0967 0000076 209.1211 207.7767 1.00270805 36434



Live tracking and technical data element details for EUTELSAT 115 WEST B (NORAD 40425). EUTELSAT 115 WEST B can be tracked NOW for your location showing map with azimuth and elevation plus other details from your city location.







IsCatalogInMostPopularTable: catalog: 40425, numindb: 561
Update: records affected: 1



GetName: 40425 EUTELSAT 115 WEST B

Hit Count: updated at: Thu, 15 May 2025 08:54:32 GMT